Temperature
6 5 5 5 6 6 7 7 7 8 9 9 9 10 10 11 11 11 12 13 13 14 15 16 16 16 16 16 16 16 15 15 15 15 15 15 15 15 15 15 15 15 14 14
4 5 6 6 7 7 7 7 7 8 9 9 9 9 10 11 11 12 12 12 13 14 15 15 16 16 16 16 16 16 16 15 15 15 15 15 15 15 15 15 14 14 14 14
5 6 7 7 7 7 7 7 7 8 9 9 9 9 10 10 11 12 13 13 14 14 15 15 16 16 16 16 16 16 16 16 16 15 15 15 15 15 14 14 14 14 14 14
5 6 7 7 7 7 7 7 8 8 7 7 8 8 9 10 11 11 12 13 14 15 15 15 16 16 16 16 16 16 16 16 16 15 15 15 15 15 15 15 15 14 14 14
5 6 6 6 7 7 7 8 8 8 7 7 7 7 8 9 10 11 11 13 14 15 15 16 16 16 16 16 16 16 16 16 16 15 15 15 15 15 15 15 14 14 14 14
6 6 7 7 7 7 7 7 7 6 6 6 7 7 8 8 10 11 11 13 15 15 15 16 16 16 16 16 16 16 16 16 16 15 15 15 15 15 15 14 14 14 14 14
5 6 7 7 7 7 7 5 5 5 6 6 7 7 8 9 10 11 12 13 15 15 15 16 16 16 16 16 16 16 16 16 16 15 15 15 15 15 14 14 14 14 14 14
4 4 6 6 6 6 6 5 5 6 6 6 7 7 8 10 10 12 13 14 14 14 15 15 16 16 16 16 16 16 15 15 15 15 15 15 14 14 14 14 14 14 14 14
4 5 6 7 7 7 6 5 6 5 5 6 7 7 9 10 10 10 11 12 13 14 14 15 15 15 15 15 15 15 15 15 15 15 15 14 14 14 14 14 13 13 13 13
5 5 5 6 7 6 6 6 5 5 6 6 7 7 8 9 9 9 9 10 12 13 13 14 14 14 14 15 15 15 15 14 14 14 14 14 14 14 14 13 13 13 13 13
5 4 5 5 6 6 6 6 6 5 5 6 6 7 8 8 8 8 9 10 11 12 13 13 13 14 14 14 14 14 14 14 14 13 13 13 13 13 13 13 13 12 12 12
5 4 4 4 6 6 6 6 5 5 5 5 5 6 8 7 8 8 9 10 11 12 12 12 12 13 13 13 13 13 13 13 13 13 13 13 13 12 12 12 12 12 12 11
5 4 4 4 5 5 6 6 6 5 5 5 5 7 8 8 8 9 9 10 10 11 11 11 12 12 12 12 12 12 12 12 12 12 12 12 12 12 11 11 11 11 11 11
6 4 4 4 4 5 5 5 6 5 4 5 5 6 8 8 8 8 9 9 10 10 10 11 11 11 11 11 11 11 11 11 11 11 11 11 11 11 11 10 10 10 10 10
4 3 4 4 5 5 5 5 5 5 5 5 6 6 7 7 7 8 8 9 9 9 10 10 10 10 10 10 10 10 10 10 10 10 10 10 10 10 9 9 9 9 9 9
3 3 3 4 5 5 5 5 6 5 5 5 6 6 7 7 8 8 8 8 8 9 9 9 9 10 10 10 10 10 10 9 9 9 9 9 9 9 9 9 8 8 8 8
2 2 3 3 4 5 4 5 5 5 5 5 5 6 6 6 6 7 7 7 8 8 8 9 9 9 9 9 9 9 9 9 9 9 9 8 8 8 8 8 8 7 7 7
2 2 2 2 3 4 5 5 5 5 5 5 5 5 6 6 7 7 7 7 7 7 8 8 9 9 9 9 9 9 8 8 8 8 8 8 8 8 7 7 7 7 6 6
2 3 2 2 3 4 5 5 5 5 5 4 4 5 5 6 6 6 6 6 6 7 7 8 8 8 8 8 8 8 8 8 8 8 8 8 7 7 7 7 6 6 6 5
2 2 2 2 3 3 4 4 5 5 4 4 4 4 4 5 4 5 5 6 6 6 7 7 7 8 8 8 8 8 8 8 8 8 7 7 7 7 6 6 5 5 5 4
2 2 2 2 2 3 3 4 4 4 4 3 3 3 4 4 4 4 5 5 5 6 6 6 7 7 7 7 7 7 7 7 7 7 7 6 6 6 5 5 5 4 4 4
1 1 2 2 2 3 3 3 3 3 3 3 3 3 3 3 4 4 4 5 5 5 5 6 6 6 6 7 7 7 7 7 6 6 6 6 5 5 5 4 4 4 3 3
1 1 1 1 2 3 3 2 2 2 2 2 2 3 3 3 3 4 4 4 4 4 5 5 5 5 5 6 6 6 6 6 6 6 5 5 5 5 4 4 4 3 3 3
1 1 1 1 2 2 2 2 2 2 2 2 2 2 2 3 3 3 3 3 4 4 4 4 4 5 5 5 5 5 5 5 5 5 5 5 4 4 4 3 3 3 2 2
0 1 0 1 1 2 2 2 1 1 1 1 2 2 2 2 2 3 3 3 3 3 3 3 4 4 4 4 4 4 4 4 4 4 4 4 4 3 3 3 3 2 2 1
-0 0 0 0 1 0 1 1 1 1 1 1 1 1 2 2 2 2 2 3 3 3 3 3 3 3 3 3 3 3 3 3 3 3 3 3 3 3 2 2 2 1 1 1
Wind_Speed
2 3 1 3 3 2 1 2 3 3 3 3 6 7 7 6 5 7 7 8 9 10 9 8 8 9 9 10 11 12 13 12 11 9 9 8 8 7 6 7 12 13 13 13
4 1 3 3 3 2 1 1 1 2 3 3 4 7 8 9 9 9 11 11 11 10 9 9 9 8 9 11 12 12 13 13 12 10 9 6 6 5 6 6 9 12 12 12
2 3 2 2 2 3 2 3 2 2 1 1 1 5 7 8 9 9 10 11 12 13 13 11 11 10 10 11 12 12 12 12 12 10 6 5 4 3 4 5 6 7 11 11
1 2 0 2 2 2 2 4 3 2 2 2 3 4 6 7 9 11 12 11 12 12 12 11 12 11 11 12 11 11 12 12 11 11 10 10 8 7 7 6 6 5 9 10
2 1 1 0 1 2 2 1 2 1 2 1 2 3 7 5 9 13 13 13 13 12 12 12 12 12 11 10 10 10 11 11 11 11 12 11 9 7 5 5 6 6 5 7
2 1 1 1 1 1 1 3 3 2 2 3 6 5 6 6 11 10 12 12 13 12 11 11 9 8 8 8 8 8 10 10 10 11 11 11 11 9 8 7 8 6 4 3
4 2 1 1 1 2 3 4 2 1 1 5 5 5 9 9 9 12 13 13 12 10 10 10 9 9 9 9 8 8 10 9 9 10 10 11 11 11 10 9 9 8 5 4
2 4 2 2 3 2 2 4 4 3 4 3 3 7 8 8 6 7 8 8 7 7 7 8 10 10 10 10 9 9 9 8 8 9 9 8 9 7 6 7 7 7 5 5
1 3 2 2 2 3 3 3 3 3 1 2 4 6 7 5 4 3 1 3 4 4 5 6 6 7 8 9 9 9 9 7 7 8 7 7 8 7 7 6 6 5 5 4
2 2 3 1 1 1 2 2 2 2 2 3 3 3 4 6 5 3 1 2 3 2 2 3 3 4 5 6 6 7 7 7 6 6 6 6 6 7 7 7 7 6 6 5
1 1 3 1 3 4 2 1 2 2 2 2 2 5 3 6 5 3 2 1 2 3 3 2 2 2 3 4 5 6 6 7 6 6 6 6 6 6 7 7 7 7 6 6
1 1 2 4 4 3 4 4 3 3 3 3 2 6 6 5 3 2 2 1 0 2 2 2 3 3 4 4 5 6 6 6 6 6 7 7 6 7 7 7 6 6 7 6
0 1 2 4 3 1 2 3 4 3 2 2 3 5 4 4 4 3 2 2 1 1 1 1 2 2 3 4 4 5 6 7 6 7 8 7 7 7 7 7 7 7 6 6
1 2 3 4 4 2 3 4 3 3 3 3 5 6 5 4 4 4 3 2 1 1 1 1 1 2 3 3 4 5 6 6 7 7 8 8 7 7 7 7 7 7 6 6
2 1 3 6 7 5 5 5 4 5 5 5 6 6 7 5 4 4 3 2 2 2 2 2 3 3 3 3 4 5 6 6 7 8 8 7 7 7 7 7 7 7 6 6
3 1 2 4 4 3 4 5 5 6 5 5 6 8 6 4 3 4 4 3 3 3 4 4 4 4 4 5 6 6 6 7 8 8 8 7 8 8 7 7 7 6 6 5
1 1 2 4 6 2 3 4 4 2 2 3 5 6 6 6 5 4 4 4 3 4 5 5 5 6 6 6 7 8 7 7 8 8 8 8 8 8 7 7 7 7 6 5
2 1 1 2 3 2 3 2 1 0 2 4 4 6 6 5 4 1 3 3 4 5 4 4 4 4 5 5 5 5 6 8 9 8 8 8 9 8 7 7 7 6 5 5
4 2 0 0 2 4 3 4 4 2 2 6 6 8 8 6 3 3 5 5 4 5 5 5 4 4 3 4 5 6 6 8 8 9 9 9 9 9 8 8 7 5 5 4
2 1 1 0 1 3 3 7 7 2 1 7 8 8 8 6 3 4 6 6 7 7 6 4 3 2 1 2 4 7 7 8 9 9 9 8 9 9 9 8 6 4 4 5
1 0 1 2 3 4 4 8 5 1 3 8 7 7 7 4 4 6 7 6 6 6 6 4 3 2 1 1 4 6 6 8 7 7 7 7 8 8 8 7 5 5 5 5
3 2 2 2 3 4 4 4 3 2 5 6 7 7 7 7 6 6 5 5 6 6 6 5 3 3 3 1 3 4 5 4 5 6 7 7 7 7 7 7 6 6 6 6
3 5 3 4 4 2 1 1 1 3 5 6 6 8 8 7 6 6 5 5 5 6 6 5 3 3 3 3 2 3 2 3 5 6 6 6 7 6 7 8 7 6 6 5
3 1 2 3 4 2 1 1 3 5 6 7 7 8 7 7 7 6 5 4 4 4 5 4 3 3 3 3 2 1 2 4 5 6 5 6 6 6 6 6 6 6 7 6
4 2 1 3 3 4 2 3 5 7 7 7 7 7 7 7 7 5 4 4 3 3 3 3 3 2 2 3 2 2 2 4 4 4 4 5 5 6 6 5 6 7 6 7
4 4 4 4 3 3 5 5 6 7 8 8 9 9 7 6 6 5 4 3 3 3 3 2 3 2 2 2 2 2 1 2 4 4 4 4 4 4 4 4 4 7 8 10
Wind_Direction
36 81 139 202 203 173 171 177 185 217 203 184 211 235 253 252 247 238 247 248 246 241 244 238 217 194 184 182 181 183 181 181 176 175 176 176 180 178 176 179 182 183 182 182
48 9 231 207 202 199 192 174 211 257 209 196 226 243 238 231 231 227 227 233 234 236 234 228 225 203 190 186 185 186 185 182 181 182 181 177 171 175 179 176 181 184 182 181
145 254 241 187 171 179 216 183 188 217 255 227 216 272 240 234 226 230 228 225 224 222 221 216 214 212 197 191 187 187 189 187 185 181 166 146 132 136 164 180 183 185 183 182
315 296 161 153 193 186 229 218 204 191 138 233 184 246 257 233 236 233 231 228 228 222 216 211 208 208 203 200 192 184 184 185 184 177 174 172 178 185 191 184 181 177 178 177
301 310 28 136 253 182 202 185 173 177 162 234 204 218 269 241 234 235 232 228 228 222 213 210 207 204 202 196 190 185 179 182 181 179 180 182 187 189 171 162 167 174 169 169
261 251 219 227 306 158 116 64 64 63 104 233 207 200 264 225 220 228 230 227 226 222 215 212 207 197 195 190 187 182 177 180 180 179 181 184 185 177 165 171 177 174 166 163
347 328 295 122 53 26 77 94 73 38 206 242 199 203 249 244 233 224 227 228 226 219 211 206 198 192 188 184 183 179 177 180 180 179 182 186 186 183 182 182 181 175 174 179
351 309 257 195 179 176 173 143 161 183 204 263 208 225 254 266 263 245 233 224 216 211 206 203 199 192 189 186 180 175 176 176 176 177 179 180 180 181 185 181 175 175 178 176
218 283 291 223 188 154 157 191 194 152 201 252 249 271 302 324 334 327 251 177 184 195 195 195 192 188 186 183 181 177 173 170 171 173 168 167 166 165 165 161 157 157 157 154
184 281 299 297 77 350 166 163 126 149 180 233 266 269 276 302 304 324 356 177 179 147 150 168 179 183 181 177 171 165 163 163 160 158 159 160 158 158 156 151 155 155 151 145
160 216 308 350 209 207 169 199 195 179 192 193 241 265 269 280 285 301 292 239 181 151 157 168 165 156 146 144 149 152 155 150 149 150 145 141 143 142 141 145 150 149 143 145
225 163 270 260 266 213 192 205 182 188 231 209 214 271 302 312 314 333 331 342 134 142 144 146 143 138 138 143 151 154 152 148 147 143 136 135 134 133 133 133 133 133 132 131
120 98 339 337 339 356 243 231 209 200 206 210 216 269 315 343 1 357 359 352 7 96 102 99 114 143 156 156 155 159 158 153 145 138 134 131 131 132 132 130 124 120 119 116
88 152 196 224 247 262 264 263 230 191 214 233 233 266 305 325 337 335 331 321 318 295 231 194 193 197 186 174 165 161 161 156 148 143 141 141 141 138 132 127 123 120 119 118
65 226 255 262 263 254 256 261 243 226 225 228 259 273 281 288 292 304 307 301 297 293 272 232 217 215 203 189 180 170 166 159 152 148 148 150 140 133 129 127 125 121 121 122
33 328 311 302 285 264 280 284 260 252 240 239 267 283 292 307 325 327 316 300 283 278 269 248 228 214 207 199 191 183 176 168 156 155 156 148 141 139 137 136 132 127 125 124
349 19 349 298 310 351 305 297 266 251 250 236 252 272 308 326 329 318 320 317 298 294 283 261 242 227 217 208 195 190 184 167 159 160 157 154 151 149 149 146 141 143 143 141
175 150 215 300 357 269 246 332 314 214 7 351 328 325 328 309 284 318 354 336 315 314 303 289 274 252 233 214 196 182 169 166 165 164 163 161 158 157 154 152 155 155 149 153
182 170 216 326 300 278 316 346 342 298 337 4 344 334 335 332 339 337 355 348 326 314 303 288 275 262 238 210 188 165 166 168 169 174 174 171 166 163 163 167 168 161 155 159
137 145 148 207 255 249 292 314 314 255 300 356 352 343 338 350 341 307 332 335 332 331 325 317 312 308 245 213 169 162 171 174 185 186 179 171 168 169 174 175 167 159 158 166
49 49 191 222 243 262 301 315 341 97 309 332 334 336 338 331 292 297 319 330 331 333 337 345 357 357 313 212 158 169 176 192 192 172 162 165 170 172 171 167 163 158 159 162
189 190 216 202 225 258 331 10 38 306 309 319 324 323 323 315 316 318 323 331 341 347 349 357 8 5 2 64 145 167 191 189 155 153 160 167 167 167 166 164 165 163 165 173
203 197 206 208 225 267 3 52 305 315 315 319 320 318 317 316 317 319 322 331 339 345 346 353 8 11 12 26 109 158 181 147 146 151 162 165 164 166 165 169 171 172 178 188
274 216 209 257 260 274 291 281 339 335 320 317 317 318 318 312 310 315 317 323 333 341 343 349 11 17 8 12 39 105 143 145 149 159 165 166 169 172 173 176 179 185 191 199
236 210 217 257 278 310 279 324 328 325 322 320 322 315 311 309 305 302 305 313 322 331 338 355 8 6 357 11 27 40 105 137 146 156 165 171 177 179 183 189 197 201 206 204
207 184 190 230 239 250 277 297 318 320 319 319 320 318 314 307 301 304 304 308 316 325 341 357 4 6 6 24 27 24 66 134 149 161 174 181 184 186 188 195 216 224 222 228
Height
1490 1493 1494 1493 1493 1493 1494 1493 1494 1493 1491 1492 1493 1492 1490 1489 1490 1491 1491 1492 1493 1494 1496 1498 1500 1503 1506 1509 1512 1516 1518 1521 1525 1528 1531 1534 1537 1540 1543 1546 1548 1551 1553 1555
1494 1495 1492 1491 1491 1492 1493 1495 1495 1493 1490 1491 1493 1492 1489 1488 1489 1489 1489 1490 1491 1492 1494 1496 1498 1501 1503 1506 1509 1512 1515 1518 1521 1524 1527 1531 1534 1537 1540 1542 1545 1548 1550 1551
1494 1493 1490 1490 1491 1493 1493 1495 1495 1494 1491 1490 1492 1492 1488 1484 1484 1485 1485 1486 1486 1488 1490 1492 1495 1497 1500 1503 1505 1508 1511 1514 1518 1521 1525 1528 1531 1534 1537 1538 1541 1544 1546 1548
1493 1491 1490 1490 1491 1491 1493 1491 1491 1492 1495 1497 1495 1498 1488 1482 1480 1480 1480 1481 1482 1484 1486 1488 1491 1493 1496 1499 1502 1505 1508 1511 1515 1518 1521 1523 1525 1528 1531 1534 1537 1540 1542 1544
1494 1491 1491 1491 1491 1490 1492 1490 1491 1492 1495 1499 1497 1499 1490 1481 1479 1475 1474 1475 1477 1479 1481 1484 1487 1490 1493 1496 1499 1502 1505 1508 1511 1514 1517 1520 1523 1525 1528 1531 1534 1536 1538 1540
1492 1490 1490 1490 1489 1489 1490 1492 1493 1496 1498 1502 1495 1497 1489 1480 1472 1469 1468 1469 1471 1474 1477 1480 1483 1486 1489 1492 1495 1498 1501 1505 1508 1511 1513 1516 1519 1521 1524 1527 1529 1532 1534 1537
1495 1492 1490 1490 1491 1491 1492 1499 1504 1504 1504 1499 1491 1492 1483 1469 1465 1463 1463 1464 1466 1469 1472 1475 1478 1482 1485 1488 1491 1495 1498 1501 1504 1506 1509 1512 1515 1518 1521 1523 1525 1528 1530 1533
1501 1500 1492 1490 1491 1493 1494 1497 1504 1504 1502 1498 1490 1489 1476 1465 1461 1459 1459 1460 1462 1465 1468 1471 1474 1477 1481 1484 1488 1491 1494 1497 1500 1503 1506 1509 1511 1514 1517 1519 1522 1524 1526 1529
1501 1499 1491 1489 1489 1491 1494 1496 1495 1499 1499 1498 1491 1481 1471 1462 1460 1459 1458 1459 1461 1463 1465 1468 1470 1474 1477 1481 1484 1488 1491 1493 1496 1499 1502 1505 1508 1510 1513 1516 1518 1520 1523 1524
1497 1498 1493 1490 1490 1491 1492 1493 1497 1499 1497 1494 1488 1483 1478 1468 1464 1461 1460 1459 1460 1462 1464 1466 1468 1471 1474 1477 1481 1484 1487 1490 1493 1496 1498 1501 1503 1506 1509 1512 1514 1516 1518 1520
1496 1499 1496 1493 1492 1492 1493 1494 1494 1496 1496 1495 1491 1486 1471 1469 1464 1462 1460 1460 1461 1462 1464 1466 1467 1470 1472 1475 1478 1480 1483 1486 1489 1492 1495 1497 1500 1502 1504 1507 1509 1512 1514 1515
1496 1499 1499 1495 1489 1488 1489 1490 1493 1496 1495 1494 1494 1486 1468 1467 1464 1462 1461 1460 1461 1462 1464 1465 1466 1468 1470 1472 1475 1477 1480 1482 1485 1488 1491 1493 1496 1498 1501 1503 1506 1508 1509 1511
1496 1499 1502 1498 1496 1492 1490 1489 1489 1491 1492 1492 1492 1484 1468 1467 1465 1463 1462 1462 1462 1463 1463 1464 1465 1467 1468 1470 1472 1474 1477 1479 1482 1484 1487 1490 1492 1495 1497 1499 1501 1503 1505 1507
1494 1498 1502 1500 1495 1492 1491 1488 1487 1490 1492 1490 1486 1479 1472 1469 1467 1465 1465 1464 1463 1463 1464 1464 1465 1466 1468 1469 1470 1472 1474 1476 1478 1481 1483 1486 1489 1491 1493 1495 1497 1499 1501 1502
1495 1498 1496 1493 1490 1489 1488 1486 1485 1487 1487 1488 1482 1478 1473 1470 1468 1467 1465 1464 1464 1464 1463 1464 1464 1465 1466 1467 1468 1470 1471 1473 1475 1478 1480 1483 1485 1488 1490 1492 1494 1496 1497 1499
1498 1500 1498 1494 1487 1487 1486 1483 1482 1482 1482 1482 1480 1477 1472 1469 1468 1467 1466 1465 1464 1463 1463 1463 1463 1463 1464 1465 1466 1467 1469 1471 1473 1475 1478 1480 1483 1485 1487 1489 1491 1493 1494 1495
1500 1500 1500 1498 1490 1487 1489 1484 1482 1481 1479 1479 1478 1476 1472 1469 1468 1467 1466 1464 1463 1463 1462 1462 1461 1461 1462 1462 1463 1465 1466 1468 1470 1473 1475 1478 1480 1482 1484 1486 1488 1490 1491 1492
1499 1500 1500 1499 1495 1493 1487 1481 1480 1479 1479 1478 1476 1473 1471 1469 1467 1466 1465 1464 1462 1462 1461 1460 1459 1459 1460 1460 1461 1462 1464 1466 1468 1470 1473 1475 1478 1480 1482 1484 1485 1487 1487 1488
1496 1498 1500 1500 1498 1491 1484 1482 1481 1480 1479 1479 1477 1474 1471 1468 1466 1465 1464 1463 1462 1460 1459 1458 1457 1457 1457 1457 1458 1460 1461 1463 1465 1468 1470 1473 1475 1477 1479 1481 1482 1483 1484 1485
1496 1497 1500 1499 1496 1493 1488 1482 1479 1480 1480 1479 1477 1474 1471 1468 1468 1466 1464 1462 1460 1459 1457 1456 1455 1454 1455 1455 1456 1457 1458 1460 1462 1465 1468 1470 1472 1474 1476 1478 1479 1480 1481 1481
1498 1499 1500 1499 1497 1491 1487 1482 1479 1483 1484 1480 1477 1475 1472 1470 1469 1467 1463 1461 1459 1457 1455 1454 1453 1452 1452 1453 1453 1454 1456 1458 1460 1463 1465 1467 1469 1471 1473 1474 1475 1476 1477 1478
1499 1500 1499 1498 1497 1494 1486 1483 1486 1486 1482 1479 1476 1474 1472 1469 1467 1464 1462 1460 1458 1456 1454 1453 1451 1451 1451 1451 1451 1452 1453 1456 1458 1460 1462 1464 1466 1467 1469 1471 1472 1473 1474 1474
1496 1496 1495 1495 1493 1488 1485 1485 1485 1483 1481 1478 1475 1473 1470 1468 1465 1463 1461 1459 1457 1455 1453 1452 1451 1450 1449 1449 1449 1450 1452 1454 1455 1457 1459 1461 1462 1464 1466 1467 1468 1469 1470 1470
1493 1491 1491 1490 1487 1486 1485 1484 1483 1481 1479 1476 1474 1471 1469 1466 1464 1461 1459 1457 1456 1454 1453 1451 1450 1449 1448 1448 1448 1449 1450 1451 1452 1454 1456 1457 1459 1460 1462 1463 1464 1465 1465 1466
1490 1489 1490 1488 1486 1484 1482 1482 1481 1478 1476 1473 1471 1469 1466 1464 1461 1460 1458 1456 1454 1453 1451 1450 1449 1448 1447 1447 1447 1448 1448 1449 1450 1451 1452 1454 1455 1456 1457 1458 1460 1461 1462 1463
1486 1487 1488 1486 1484 1484 1481 1480 1478 1476 1473 1471 1468 1465 1463 1461 1459 1457 1455 1454 1453 1451 1450 1449 1448 1447 1446 1446 1446 1446 1446 1447 1447 1448 1449 1451 1452 1452 1453 1454 1455 1456 1457 1458